,,,PA_Meas_PMT16A,,PR_Meas_QMR101_102,,RH_Meas_QMH101,,SR_Meas_QMS101,,TA_Meas_QMH101,,GenWind,,GenWind,
date,time,status,PA,status,PR,status,RH,status,SR,status,TA,status,DirAvg,status,SpdAvg,
2009-04-14, 00:00:04,VALID,1002.07,VALID,0,VALID,93.1715,VALID,0,VALID,25.5941,VALID,8,VALID,0.118359,
2009-04-14, 00:01:04,VALID,1002.06,VALID,0,VALID,93.1639,VALID,0,VALID,25.5746,VALID,8,VALID,0.130469,
2009-04-14, 00:02:04,VALID,1002.07,VALID,0,VALID,93.1791,VALID,0,VALID,25.5746,VALID,8,VALID,0.0167969,
2009-04-14, 00:03:04,VALID,1002.07,VALID,0,VALID,93.2325,VALID,0,VALID,25.5532,VALID,8,VALID,0,
2009-04-14, 00:04:04,VALID,1002.08,VALID,0,VALID,93.3012,VALID,0,VALID,25.5941,VALID,8,VALID,0,
2009-04-14, 00:05:04,VALID,1002.06,VALID,0,VALID,93.3394,VALID,0,VALID,25.5921,VALID,8,VALID,0,
2009-04-14, 00:06:04,VALID,1002.05,VALID,0,VALID,93.3317,VALID,0,VALID,25.6136,VALID,8,VALID,0.207422,
2009-04-14, 00:07:04,VALID,1002.02,VALID,0,VALID,93.3851,VALID,0,VALID,25.6116,VALID,8,VALID,0.646875,
2009-04-14, 00:08:04,VALID,1002.04,VALID,0,VALID,93.3775,VALID,0,VALID,25.6136,VALID,14,VALID,0.548828,
2009-04-14, 00:09:04,VALID,1002.03,VALID,0,VALID,93.3775,VALID,0,VALID,25.5921,VALID,15,VALID,0.4375,
2009-04-14, 00:10:04,VALID,1002.04,VALID,0,VALID,93.3622,VALID,0,VALID,25.5727,VALID,47,VALID,0.309375,
2009-04-14, 00:11:04,VALID,1002.08,VALID,0,VALID,93.3775,VALID,0,VALID,25.5746,VALID,63,VALID,0.387109,
2009-04-14, 00:12:04,VALID,1002.09,VALID,0,VALID,93.3699,VALID,0,VALID,25.5532,VALID,84,VALID,0.860156,
2009-04-14, 00:13:04,VALID,1002.09,VALID,0.5,VALID,93.3775,VALID,0,VALID,25.5142,VALID,80,VALID,0.314063,
2009-04-14, 00:14:04,VALID,1002.13,VALID,0.5,VALID,93.4004,VALID,0,VALID,25.4948,VALID,33,VALID,0.697656,
2009-04-14, 00:15:04,VALID,1002.12,VALID,0,VALID,93.4614,VALID,0,VALID,25.4558,VALID,18,VALID,0.694922,
2009-04-14, 00:16:04,VALID,1002.13,VALID,0.5,VALID,93.5301,VALID,0,VALID,25.4383,VALID,28,VALID,0.35625,
2009-04-14, 00:17:04,VALID,1002.13,VALID,0.5,VALID,93.614,VALID,0,VALID,25.3974,VALID,56,VALID,0.329688,
2009-04-14, 00:18:04,VALID,1002.17,VALID,0,VALID,93.6369,VALID,0,VALID,25.3584,VALID,85,VALID,0.599609,
2009-04-14, 00:19:04,VALID,1002.2,VALID,0.5,VALID,93.6521,VALID,0,VALID,25.3019,VALID,102,VALID,1.08516,
2009-04-14, 00:20:04,VALID,1002.2,VALID,0.5,VALID,93.7361,VALID,0,VALID,25.2611,VALID,100,VALID,1.06523,
2009-04-14, 00:21:04,VALID,1002.25,VALID,0.5,VALID,93.8352,VALID,0,VALID,25.2416,VALID,119,VALID,0.901953,
2009-04-14, 00:22:04,VALID,1002.24,VALID,0.5,VALID,93.942,VALID,0,VALID,25.2806,VALID,152,VALID,1.01367,
2009-04-14, 00:23:04,VALID,1002.22,VALID,0,VALID,93.9344,VALID,0,VALID,25.2221,VALID,132,VALID,1.57344,
2009-04-14, 00:24:04,VALID,1002.19,VALID,1,VALID,93.8505,VALID,0,VALID,25.1442,VALID,107,VALID,1.08203,
2009-04-14, 00:25:04,VALID,1002.24,VALID,0,VALID,93.8734,VALID,0,VALID,25.0877,VALID,142,VALID,2.04336,
2009-04-14, 00:26:04,VALID,1002.22,VALID,0.5,VALID,94.1251,VALID,0,VALID,25.1461,VALID,152,VALID,1.21992,
2009-04-14, 00:27:04,VALID,1002.18,VALID,0,VALID,94.3158,VALID,0,VALID,25.2027,VALID,149,VALID,1.44023,
2009-04-14, 00:28:04,VALID,1002.2,VALID,0.5,VALID,94.4608,VALID,0,VALID,25.3195,VALID,149,VALID,2.80469,
2009-04-14, 00:29:04,VALID,1002.15,VALID,0,VALID,94.5447,VALID,0,VALID,25.3974,VALID,192,VALID,1.3375,
2009-04-14, 00:30:04,VALID,1002.16,VALID,0.5,VALID,94.5752,VALID,0,VALID,25.5142,VALID,162,VALID,1.9418,
2009-04-14, 00:31:04,VALID,1002.18,VALID,0,VALID,94.5905,VALID,0,VALID,25.5532,VALID,161,VALID,0.837891,
2009-04-14, 00:32:04,VALID,1002.2,VALID,0,VALID,94.621,VALID,0,VALID,25.5532,VALID,133,VALID,1.58438,
2009-04-14, 00:33:04,VALID,1002.23,VALID,0.5,VALID,94.6057,VALID,0,VALID,25.5727,VALID,194,VALID,0.842578,
2009-04-14, 00:34:04,VALID,1002.24,VALID,0,VALID,94.6286,VALID,0,VALID,25.5921,VALID,178,VALID,0.306641,
2009-04-14, 00:35:04,VALID,1002.23,VALID,0,VALID,94.5981,VALID,0,VALID,25.5921,VALID,226,VALID,0.923047,
2009-04-14, 00:36:04,VALID,1002.18,VALID,0,VALID,94.621,VALID,0,VALID,25.5921,VALID,155,VALID,0.947656,
2009-04-14, 00:37:04,VALID,1002.13,VALID,0,VALID,94.5981,VALID,0,VALID,25.5727,VALID,156,VALID,0.432813,
2009-04-14, 00:38:04,VALID,1002.13,VALID,0,VALID,94.5981,VALID,0,VALID,25.5727,VALID,213,VALID,0.805859,
2009-04-14, 00:39:04,VALID,1002.08,VALID,0,VALID,94.56,VALID,0,VALID,25.4753,VALID,202,VALID,0.275781,
2009-04-14, 00:40:04,VALID,1002.06,VALID,0,VALID,94.56,VALID,0,VALID,25.4363,VALID,206,VALID,0.808984,
2009-04-14, 00:41:04,VALID,1002.06,VALID,0,VALID,94.5523,VALID,0,VALID,25.4169,VALID,201,VALID,0.529297,
2009-04-14, 00:42:04,VALID,1002.05,VALID,0,VALID,94.5447,VALID,0,VALID,25.4169,VALID,183,VALID,0.248047,
2009-04-14, 00:43:04,VALID,1002.06,VALID,0,VALID,94.5523,VALID,0,VALID,25.3779,VALID,193,VALID,0.365625,
2009-04-14, 00:44:04,VALID,1002.02,VALID,0,VALID,94.5523,VALID,0,VALID,25.3584,VALID,197,VALID,0.526172,
2009-04-14, 00:45:04,VALID,1002.01,VALID,0,VALID,94.56,VALID,0,VALID,25.339,VALID,262,VALID,0.6875,
2009-04-14, 00:46:04,VALID,1002.02,VALID,0,VALID,94.5523,VALID,0,VALID,25.3409,VALID,253,VALID,0.196094,
2009-04-14, 00:47:04,VALID,1001.99,VALID,0,VALID,94.5905,VALID,0,VALID,25.3,VALID,250,VALID,0.475391,
2009-04-14, 00:48:04,VALID,1002,VALID,0,VALID,94.6057,VALID,0,VALID,25.3019,VALID,249,VALID,0.264062,
2009-04-14, 00:49:04,VALID,1002.02,VALID,0,VALID,94.6134,VALID,0,VALID,25.3195,VALID,249,VALID,0.00117188,
2009-04-14, 00:50:04,VALID,1001.97,VALID,0,VALID,94.6363,VALID,0,VALID,25.3019,VALID,304,VALID,0.252344,
2009-04-14, 00:51:04,VALID,1001.96,VALID,0,VALID,94.6286,VALID,0,VALID,25.2435,VALID,248,VALID,0.325781,
2009-04-14, 00:52:04,VALID,1001.92,VALID,0,VALID,94.5981,VALID,0,VALID,25.1423,VALID,288,VALID,0.68125,
2009-04-14, 00:53:04,VALID,1001.91,VALID,0,VALID,94.5981,VALID,0,VALID,25.1034,VALID,284,VALID,0.380469,
2009-04-14, 00:54:04,VALID,1001.9,VALID,0,VALID,94.5829,VALID,0,VALID,25.0663,VALID,284,VALID,0.0359375,
2009-04-14, 00:55:04,VALID,1001.85,VALID,0,VALID,94.6134,VALID,0,VALID,25.0877,VALID,283,VALID,0.455469,
2009-04-14, 00:56:04,VALID,1001.84,VALID,0,VALID,94.6363,VALID,0,VALID,25.1053,VALID,282,VALID,0.180469,
2009-04-14, 00:57:04,VALID,1001.84,VALID,0,VALID,94.6515,VALID,0,VALID,25.0663,VALID,241,VALID,0.401953,
2009-04-14, 00:58:04,VALID,1001.84,VALID,0,VALID,94.6744,VALID,0,VALID,25.0469,VALID,241,VALID,0.161719,
2009-04-14, 00:59:04,VALID,1001.87,VALID,0,VALID,94.7049,VALID,0,VALID,24.9866,VALID,241,VALID,0.0832031,
2009-04-14, 01:00:04,VALID,1001.82,VALID,0,VALID,94.682,VALID,0,VALID,25.0079,VALID,241,VALID,0.0542969,
2009-04-14, 01:01:04,VALID,1001.82,VALID,0,VALID,94.7125,VALID,0,VALID,24.9866,VALID,283,VALID,0.550781,
2009-04-14, 01:02:04,VALID,1001.77,VALID,0,VALID,94.7278,VALID,0,VALID,24.9885,VALID,353,VALID,0.842188,
2009-04-14, 01:03:04,VALID,1001.74,VALID,0,VALID,94.7202,VALID,0,VALID,24.9476,VALID,344,VALID,0.608203,
2009-04-14, 01:04:04,VALID,1001.71,VALID,0,VALID,94.7354,VALID,0,VALID,24.9106,VALID,350,VALID,1.12695,
2009-04-14, 01:05:04,VALID,1001.74,VALID,0,VALID,94.7354,VALID,0.100563,VALID,24.8892,VALID,349,VALID,0.870703,
2009-04-14, 01:06:04,VALID,1001.76,VALID,0,VALID,94.766,VALID,0.100563,VALID,24.9087,VALID,348,VALID,0.903125,
2009-04-14, 01:07:04,VALID,1001.79,VALID,0,VALID,94.7583,VALID,0,VALID,24.8892,VALID,355,VALID,1.28281,
2009-04-14, 01:08:04,VALID,1001.82,VALID,0,VALID,94.8117,VALID,0,VALID,24.9087,VALID,354,VALID,1.34141,
2009-04-14, 01:09:04,VALID,1001.82,VALID,0,VALID,94.8041,VALID,0.100563,VALID,24.9087,VALID,360,VALID,1.19648,
2009-04-14, 01:10:04,VALID,1001.83,VALID,0,VALID,94.8194,VALID,0.100563,VALID,24.8892,VALID,355,VALID,0.718359,
2009-04-14, 01:11:04,VALID,1001.79,VALID,0,VALID,94.8346,VALID,0,VALID,24.8911,VALID,352,VALID,1.36914,
2009-04-14, 01:12:04,VALID,1001.82,VALID,0,VALID,94.8346,VALID,0,VALID,24.8716,VALID,360,VALID,0.717969,
2009-04-14, 01:13:04,VALID,1001.84,VALID,0,VALID,94.8422,VALID,0,VALID,24.8503,VALID,12,VALID,0.31875,
2009-04-14, 01:14:04,VALID,1001.85,VALID,0,VALID,94.8499,VALID,0,VALID,24.7937,VALID,32,VALID,0.664844,
2009-04-14, 01:15:04,VALID,1001.89,VALID,0,VALID,94.8194,VALID,0,VALID,24.7353,VALID,41,VALID,0.547266,
2009-04-14, 01:16:04,VALID,1001.87,VALID,0,VALID,94.8194,VALID,0,VALID,24.6788,VALID,48,VALID,0.679688,
2009-04-14, 01:17:04,VALID,1001.9,VALID,0.5,VALID,94.7888,VALID,0,VALID,24.6185,VALID,31,VALID,0.709375,
2009-04-14, 01:18:04,VALID,1001.87,VALID,0,VALID,94.8041,VALID,0,VALID,24.5796,VALID,16,VALID,1.04141,
2009-04-14, 01:19:04,VALID,1001.9,VALID,0,VALID,94.827,VALID,0,VALID,24.5796,VALID,62,VALID,0.476172,
2009-04-14, 01:20:04,VALID,1001.87,VALID,0.5,VALID,94.827,VALID,0,VALID,24.599,VALID,64,VALID,0.375,
2009-04-14, 01:21:04,VALID,1001.85,VALID,1,VALID,94.8575,VALID,0,VALID,24.638,VALID,30,VALID,0.700781,
2009-04-14, 01:22:04,VALID,1001.8,VALID,0.5,VALID,94.888,VALID,0,VALID,24.7159,VALID,23,VALID,0.958594,
2009-04-14, 01:23:04,VALID,1001.78,VALID,1,VALID,94.9262,VALID,0,VALID,24.7353,VALID,349,VALID,0.655078,
2009-04-14, 01:24:04,VALID,1001.75,VALID,1,VALID,94.9338,VALID,0,VALID,24.7548,VALID,351,VALID,0.841406,
2009-04-14, 01:25:04,VALID,1001.72,VALID,0.5,VALID,94.949,VALID,0,VALID,24.7743,VALID,277,VALID,0.917969,
2009-04-14, 01:26:04,VALID,1001.8,VALID,0.5,VALID,94.9719,VALID,0,VALID,24.7937,VALID,281,VALID,0.476563,
2009-04-14, 01:27:04,VALID,1001.88,VALID,0.5,VALID,94.9719,VALID,0,VALID,24.7937,VALID,320,VALID,0.43125,
2009-04-14, 01:28:04,VALID,1001.95,VALID,0.5,VALID,94.9719,VALID,0,VALID,24.7937,VALID,24,VALID,0.417578,
2009-04-14, 01:29:04,VALID,1001.93,VALID,0,VALID,94.9796,VALID,0,VALID,24.8132,VALID,71,VALID,0.198437,
2009-04-14, 01:30:04,VALID,1001.9,VALID,0.5,VALID,94.9643,VALID,0,VALID,24.8346,VALID,72,VALID,0.333984,
2009-04-14, 01:31:04,VALID,1001.88,VALID,0,VALID,94.9872,VALID,0,VALID,24.8327,VALID,91,VALID,0.208984,
2009-04-14, 01:32:04,VALID,1001.82,VALID,0,VALID,94.9796,VALID,0,VALID,24.8327,VALID,91,VALID,0.1625,
2009-04-14, 01:33:04,VALID,1001.78,VALID,0,VALID,94.9872,VALID,0,VALID,24.8522,VALID,91,VALID,0.00976563,
2009-04-14, 01:34:04,VALID,1001.76,VALID,0.5,VALID,94.9948,VALID,0,VALID,24.8522,VALID,91,VALID,0.0265625,
2009-04-14, 01:35:04,VALID,1001.76,VALID,0,VALID,95.0101,VALID,0,VALID,24.8716,VALID,90,VALID,0.317187,
2009-04-14, 01:36:04,VALID,1001.73,VALID,0,VALID,94.9948,VALID,0,VALID,24.8716,VALID,89,VALID,0.383984,
2009-04-14, 01:37:04,VALID,1001.7,VALID,0,VALID,95.0024,VALID,0,VALID,24.8716,VALID,43,VALID,0.390234,
2009-04-14, 01:38:04,VALID,1001.68,VALID,0.5,VALID,94.9948,VALID,0,VALID,24.8716,VALID,47,VALID,0.15625,
2009-04-14, 01:39:04,VALID,1001.59,VALID,0,VALID,95.033,VALID,0,VALID,24.8911,VALID,15,VALID,0.69375,
2009-04-14, 01:40:04,VALID,1001.54,VALID,0,VALID,95.0253,VALID,0,VALID,24.8911,VALID,15,VALID,0.460938,
2009-04-14, 01:41:04,VALID,1001.55,VALID,0,VALID,95.0253,VALID,0,VALID,24.8911,VALID,14,VALID,0.210547,
2009-04-14, 01:42:04,VALID,1001.52,VALID,0,VALID,95.0101,VALID,0,VALID,24.8716,VALID,8,VALID,0.287109,
2009-04-14, 01:43:04,VALID,1001.57,VALID,0,VALID,95.0177,VALID,0,VALID,24.8327,VALID,11,VALID,0.554297,
2009-04-14, 01:44:04,VALID,1001.59,VALID,0,VALID,95.033,VALID,0,VALID,24.7743,VALID,40,VALID,1.34297,
2009-04-14, 01:45:04,VALID,1001.62,VALID,0,VALID,95.0177,VALID,0,VALID,24.6769,VALID,25,VALID,0.922656,
2009-04-14, 01:46:04,VALID,1001.57,VALID,0.5,VALID,95.0253,VALID,0,VALID,24.599,VALID,62,VALID,1.15742,
2009-04-14, 01:47:04,VALID,1001.55,VALID,0,VALID,95.0101,VALID,0,VALID,24.5601,VALID,26,VALID,0.774219,
2009-04-14, 01:48:04,VALID,1001.49,VALID,0,VALID,95.0024,VALID,0,VALID,24.5406,VALID,30,VALID,1.54883,
2009-04-14, 01:49:04,VALID,1001.39,VALID,0.5,VALID,95.0024,VALID,0,VALID,24.4238,VALID,70,VALID,1.55742,
2009-04-14, 01:50:04,VALID,1001.29,VALID,0,VALID,95.0024,VALID,0,VALID,24.3246,VALID,64,VALID,1.6293,
2009-04-14, 01:51:04,VALID,1001.23,VALID,0,VALID,94.9872,VALID,0,VALID,24.307,VALID,49,VALID,0.817187,
2009-04-14, 01:52:04,VALID,1001.21,VALID,0.5,VALID,94.9948,VALID,0,VALID,24.2662,VALID,72,VALID,0.849219,
2009-04-14, 01:53:04,VALID,1001.17,VALID,0,VALID,95.0101,VALID,0,VALID,24.2875,VALID,40,VALID,0.967578,
2009-04-14, 01:54:04,VALID,1001.14,VALID,0.5,VALID,95.033,VALID,0,VALID,24.2875,VALID,59,VALID,0.584375,
2009-04-14, 01:55:04,VALID,1001.13,VALID,0,VALID,95.0558,VALID,0,VALID,24.307,VALID,90,VALID,0.950781,
2009-04-14, 01:56:04,VALID,1001.17,VALID,0,VALID,95.0635,VALID,0,VALID,24.2875,VALID,75,VALID,1.11797,
2009-04-14, 01:57:04,VALID,1001.13,VALID,0,VALID,95.0635,VALID,0,VALID,24.2681,VALID,72,VALID,0.866016,
2009-04-14, 01:58:04,VALID,1001.08,VALID,0,VALID,95.0711,VALID,0,VALID,24.2662,VALID,67,VALID,0.683594,
2009-04-14, 01:59:04,VALID,1001.1,VALID,0.5,VALID,95.1016,VALID,0,VALID,24.2681,VALID,97,VALID,1.01289,
2009-04-14, 02:00:04,VALID,1001.11,VALID,0,VALID,95.1245,VALID,0,VALID,24.2486,VALID,98,VALID,1.14453,
2009-04-14, 02:01:04,VALID,1001.04,VALID,0,VALID,95.1245,VALID,0,VALID,24.2273,VALID,76,VALID,0.846875,
2009-04-14, 02:02:04,VALID,1001.05,VALID,0,VALID,95.0864,VALID,0,VALID,24.2681,VALID,77,VALID,1.11758,
2009-04-14, 02:03:04,VALID,1001.01,VALID,0,VALID,95.1245,VALID,0,VALID,24.2468,VALID,22,VALID,0.924219,
2009-04-14, 02:04:04,VALID,1001.01,VALID,0,VALID,95.1169,VALID,0,VALID,24.2875,VALID,44,VALID,1.18945,
2009-04-14, 02:05:04,VALID,1000.99,VALID,0,VALID,95.1321,VALID,0,VALID,24.2681,VALID,22,VALID,1.22305,
2009-04-14, 02:06:04,VALID,1000.99,VALID,0,VALID,95.1474,VALID,0,VALID,24.2681,VALID,27,VALID,1.39453,
2009-04-14, 02:07:04,VALID,1000.96,VALID,0,VALID,95.1398,VALID,0,VALID,24.2681,VALID,17,VALID,0.6625,
2009-04-14, 02:08:04,VALID,1000.93,VALID,0.5,VALID,95.1474,VALID,0,VALID,24.2662,VALID,27,VALID,1.00625,
2009-04-14, 02:09:04,VALID,1000.93,VALID,0,VALID,95.155,VALID,0,VALID,24.2875,VALID,29,VALID,0.894141,
2009-04-14, 02:10:04,VALID,1000.88,VALID,0,VALID,95.1474,VALID,0,VALID,24.2857,VALID,31,VALID,0.129688,
2009-04-14, 02:11:04,VALID,1000.81,VALID,0,VALID,95.1703,VALID,0,VALID,24.307,VALID,329,VALID,0.439844,
2009-04-14, 02:12:04,VALID,1000.79,VALID,0,VALID,95.1627,VALID,0,VALID,24.307,VALID,312,VALID,0.257813,
2009-04-14, 02:13:04,VALID,1000.75,VALID,0,VALID,95.155,VALID,0,VALID,24.307,VALID,312,VALID,0.00351562,
2009-04-14, 02:14:04,VALID,1000.75,VALID,0,VALID,95.1703,VALID,0,VALID,24.307,VALID,12,VALID,0.489062,
2009-04-14, 02:15:04,VALID,1000.77,VALID,0,VALID,95.1932,VALID,0,VALID,24.307,VALID,14,VALID,0.177734,
2009-04-14, 02:16:04,VALID,1000.84,VALID,0,VALID,95.1703,VALID,0,VALID,24.3265,VALID,14,VALID,0.00195313,
2009-04-14, 02:17:04,VALID,1000.88,VALID,0,VALID,95.1703,VALID,0,VALID,24.3654,VALID,14,VALID,0.203516,
2009-04-14, 02:18:04,VALID,1000.92,VALID,0,VALID,95.1855,VALID,0,VALID,24.3459,VALID,14,VALID,0.0382813,
2009-04-14, 02:19:04,VALID,1000.94,VALID,0,VALID,95.1855,VALID,0,VALID,24.3654,VALID,14,VALID,0,
2009-04-14, 02:20:04,VALID,1001,VALID,0,VALID,95.1855,VALID,0,VALID,24.3441,VALID,15,VALID,0.414453,
2009-04-14, 02:21:04,VALID,1001.01,VALID,0,VALID,95.1855,VALID,0,VALID,24.3654,VALID,64,VALID,0.352734,
2009-04-14, 02:22:04,VALID,1001,VALID,0,VALID,95.1627,VALID,0,VALID,24.3654,VALID,18,VALID,0.908594,
2009-04-14, 02:23:04,VALID,1000.96,VALID,0.5,VALID,95.2008,VALID,0,VALID,24.3478,VALID,16,VALID,0.698438,
2009-04-14, 02:24:04,VALID,1000.92,VALID,0,VALID,95.2008,VALID,0,VALID,24.3441,VALID,2,VALID,0.751953,
2009-04-14, 02:25:04,VALID,1000.86,VALID,0,VALID,95.1855,VALID,0,VALID,24.3441,VALID,351,VALID,0.621484,
2009-04-14, 02:26:04,VALID,1000.8,VALID,0,VALID,95.1855,VALID,0,VALID,24.2681,VALID,346,VALID,0.624609,
2009-04-14, 02:27:04,VALID,1000.81,VALID,0,VALID,95.1855,VALID,0,VALID,24.1707,VALID,26,VALID,1.23438,
2009-04-14, 02:28:04,VALID,1000.79,VALID,0,VALID,95.1932,VALID,0,VALID,24.1513,VALID,24,VALID,0.107031,
2009-04-14, 02:29:04,VALID,1000.78,VALID,0,VALID,95.1779,VALID,0,VALID,24.1123,VALID,26,VALID,0.201172,
2009-04-14, 02:30:04,VALID,1000.77,VALID,0,VALID,95.1855,VALID,0,VALID,24.0345,VALID,88,VALID,0.796094,
2009-04-14, 02:31:04,VALID,1000.76,VALID,0,VALID,95.1855,VALID,0,VALID,24.0345,VALID,91,VALID,0.565234,
2009-04-14, 02:32:04,VALID,1000.76,VALID,0,VALID,95.1855,VALID,0,VALID,23.9955,VALID,98,VALID,1.05781,
2009-04-14, 02:33:04,VALID,1000.74,VALID,0,VALID,95.2008,VALID,0,VALID,23.8964,VALID,107,VALID,0.908203,
2009-04-14, 02:34:04,VALID,1000.68,VALID,0,VALID,95.1779,VALID,0,VALID,23.8575,VALID,109,VALID,0.680859,
2009-04-14, 02:35:04,VALID,1000.65,VALID,0,VALID,95.1703,VALID,0,VALID,23.8575,VALID,108,VALID,0.511328,
2009-04-14, 02:36:04,VALID,1000.59,VALID,0,VALID,95.1779,VALID,0,VALID,23.8203,VALID,89,VALID,0.441797,
2009-04-14, 02:37:04,VALID,1000.55,VALID,0,VALID,95.1703,VALID,0,VALID,23.7814,VALID,95,VALID,0.876562,
2009-04-14, 02:38:04,VALID,1000.52,VALID,0,VALID,95.1855,VALID,0,VALID,23.723,VALID,106,VALID,0.385938,
2009-04-14, 02:39:04,VALID,1000.49,VALID,0,VALID,95.1703,VALID,0,VALID,23.723,VALID,106,VALID,0.561719,
2009-04-14, 02:40:04,VALID,1000.47,VALID,0,VALID,95.1627,VALID,0,VALID,23.7212,VALID,106,VALID,0.301172,
2009-04-14, 02:41:04,VALID,1000.43,VALID,0,VALID,95.1779,VALID,0,VALID,23.723,VALID,108,VALID,0.495313,
2009-04-14, 02:42:04,VALID,1000.43,VALID,0,VALID,95.1855,VALID,0,VALID,23.7425,VALID,109,VALID,0.315234,
2009-04-14, 02:43:04,VALID,1000.44,VALID,0,VALID,95.2084,VALID,0,VALID,23.7814,VALID,109,VALID,0.0675781,
2009-04-14, 02:44:04,VALID,1000.4,VALID,0,VALID,95.2161,VALID,0,VALID,23.7796,VALID,109,VALID,0,
2009-04-14, 02:45:04,VALID,1000.4,VALID,0,VALID,95.2237,VALID,0,VALID,23.8009,VALID,109,VALID,0.200391,
2009-04-14, 02:46:04,VALID,1000.38,VALID,0,VALID,95.2161,VALID,0,VALID,23.8203,VALID,109,VALID,0,
2009-04-14, 02:47:04,VALID,1000.36,VALID,0,VALID,95.2237,VALID,0,VALID,23.8009,VALID,109,VALID,0,
2009-04-14, 02:48:04,VALID,1000.36,VALID,0,VALID,95.2237,VALID,0,VALID,23.8009,VALID,109,VALID,0,
2009-04-14, 02:49:04,VALID,1000.34,VALID,0,VALID,95.2313,VALID,0,VALID,23.8009,VALID,109,VALID,0,
2009-04-14, 02:50:04,VALID,1000.37,VALID,0,VALID,95.2237,VALID,0,VALID,23.7814,VALID,90,VALID,0.476953,
2009-04-14, 02:51:04,VALID,1000.38,VALID,0,VALID,95.2313,VALID,0,VALID,23.7814,VALID,89,VALID,0.391016,
2009-04-14, 02:52:04,VALID,1000.39,VALID,0,VALID,95.2466,VALID,0,VALID,23.7796,VALID,89,VALID,0.153906,
2009-04-14, 02:53:04,VALID,1000.37,VALID,0,VALID,95.2313,VALID,0,VALID,23.7619,VALID,89,VALID,0.0453125,
2009-04-14, 02:54:04,VALID,1000.38,VALID,0,VALID,95.2313,VALID,0,VALID,23.7814,VALID,93,VALID,0.523828,
2009-04-14, 02:55:04,VALID,1000.36,VALID,0,VALID,95.2389,VALID,0,VALID,23.7796,VALID,130,VALID,0.66875,
2009-04-14, 02:56:04,VALID,1000.37,VALID,0,VALID,95.2389,VALID,0,VALID,23.7619,VALID,131,VALID,0.486719,
2009-04-14, 02:57:04,VALID,1000.37,VALID,0,VALID,95.2466,VALID,0,VALID,23.7407,VALID,131,VALID,0.379687,
2009-04-14, 02:58:04,VALID,1000.33,VALID,0,VALID,95.2618,VALID,0,VALID,23.723,VALID,76,VALID,0.674219,
2009-04-14, 02:59:04,VALID,1000.31,VALID,0,VALID,95.2695,VALID,0,VALID,23.6434,VALID,63,VALID,0.516406,
2009-04-14, 03:00:04,VALID,1000.34,VALID,0,VALID,95.2466,VALID,0,VALID,23.6823,VALID,26,VALID,0.460156,
2009-04-14, 03:01:04,VALID,1000.32,VALID,0,VALID,95.2466,VALID,0,VALID,23.7035,VALID,26,VALID,0.404687,
2009-04-14, 03:02:04,VALID,1000.3,VALID,0,VALID,95.2771,VALID,0,VALID,23.723,VALID,5,VALID,0.473437,
2009-04-14, 03:03:04,VALID,1000.27,VALID,0,VALID,95.2695,VALID,0,VALID,23.7035,VALID,5,VALID,0.291016,
2009-04-14, 03:04:04,VALID,1000.27,VALID,0,VALID,95.2618,VALID,0,VALID,23.723,VALID,5,VALID,0.243359,
2009-04-14, 03:05:04,VALID,1000.26,VALID,0,VALID,95.2847,VALID,0,VALID,23.6841,VALID,5,VALID,0.117578,
2009-04-14, 03:06:04,VALID,1000.23,VALID,0,VALID,95.2771,VALID,0,VALID,23.6628,VALID,5,VALID,0.253906,
2009-04-14, 03:07:04,VALID,1000.25,VALID,0,VALID,95.2542,VALID,0,VALID,23.6646,VALID,342,VALID,0.258594,
2009-04-14, 03:08:04,VALID,1000.25,VALID,0,VALID,95.2771,VALID,0,VALID,23.6646,VALID,333,VALID,0.0921875,
2009-04-14, 03:09:04,VALID,1000.3,VALID,0,VALID,95.2771,VALID,0,VALID,23.6841,VALID,333,VALID,0.145703,
2009-04-14, 03:10:04,VALID,1000.31,VALID,0,VALID,95.2847,VALID,0,VALID,23.6841,VALID,298,VALID,0.415625,
2009-04-14, 03:11:04,VALID,1000.33,VALID,0,VALID,95.2847,VALID,0,VALID,23.7017,VALID,298,VALID,0.128516,
2009-04-14, 03:12:04,VALID,1000.38,VALID,0,VALID,95.3076,VALID,0,VALID,23.7425,VALID,298,VALID,0.0632813,
2009-04-14, 03:13:04,VALID,1000.37,VALID,0,VALID,95.3,VALID,0,VALID,23.7425,VALID,298,VALID,0,
2009-04-14, 03:14:04,VALID,1000.38,VALID,0,VALID,95.3,VALID,0,VALID,23.7619,VALID,297,VALID,0.10625,
2009-04-14, 03:15:04,VALID,1000.37,VALID,0,VALID,95.3076,VALID,0,VALID,23.7601,VALID,297,VALID,0.0160156,
2009-04-14, 03:16:04,VALID,1000.39,VALID,0,VALID,95.3,VALID,0.100563,VALID,23.7991,VALID,300,VALID,0.329688,
2009-04-14, 03:17:04,VALID,1000.39,VALID,0,VALID,95.3,VALID,0,VALID,23.8203,VALID,301,VALID,0.249609,
2009-04-14, 03:18:04,VALID,1000.36,VALID,0,VALID,95.3152,VALID,0,VALID,23.7796,VALID,301,VALID,0.260547,
2009-04-14, 03:19:04,VALID,1000.35,VALID,0,VALID,95.3076,VALID,0,VALID,23.7796,VALID,2,VALID,0.0714844,
2009-04-14, 03:20:04,VALID,1000.36,VALID,0,VALID,95.3229,VALID,0,VALID,23.8203,VALID,2,VALID,0.0386719,
2009-04-14, 03:21:04,VALID,1000.37,VALID,0,VALID,95.3152,VALID,0.100563,VALID,23.7583,VALID,2,VALID,0.00351562,
2009-04-14, 03:22:04,VALID,1000.35,VALID,0,VALID,95.3152,VALID,0,VALID,23.7601,VALID,2,VALID,0.04375,
2009-04-14, 03:23:04,VALID,1000.35,VALID,0,VALID,95.3229,VALID,0,VALID,23.7425,VALID,89,VALID,0.4875,
2009-04-14, 03:24:04,VALID,1000.34,VALID,0,VALID,95.3229,VALID,0,VALID,23.7017,VALID,83,VALID,0.169141,
2009-04-14, 03:25:04,VALID,1000.32,VALID,0,VALID,95.3,VALID,0,VALID,23.7035,VALID,7,VALID,0.326172,
2009-04-14, 03:26:04,VALID,1000.29,VALID,0,VALID,95.3152,VALID,0,VALID,23.6823,VALID,35,VALID,0.482812,
2009-04-14, 03:27:04,VALID,1000.29,VALID,0,VALID,95.3076,VALID,0,VALID,23.6841,VALID,22,VALID,0.61875,
2009-04-14, 03:28:04,VALID,1000.26,VALID,0,VALID,95.2847,VALID,0,VALID,23.6646,VALID,18,VALID,0.464844,
2009-04-14, 03:29:04,VALID,1000.22,VALID,0,VALID,95.2923,VALID,0,VALID,23.6841,VALID,20,VALID,0.158984,
2009-04-14, 03:30:04,VALID,1000.2,VALID,0,VALID,95.3076,VALID,0,VALID,23.6628,VALID,72,VALID,0.511719,
2009-04-14, 03:31:04,VALID,1000.2,VALID,0,VALID,95.2923,VALID,0,VALID,23.6841,VALID,72,VALID,0.440234,
2009-04-14, 03:32:04,VALID,1000.18,VALID,0,VALID,95.3152,VALID,0,VALID,23.6646,VALID,71,VALID,0.559375,
2009-04-14, 03:33:04,VALID,1000.21,VALID,0,VALID,95.2847,VALID,0,VALID,23.6239,VALID,79,VALID,0.512109,
2009-04-14, 03:34:04,VALID,1000.24,VALID,0,VALID,95.2771,VALID,0,VALID,23.6452,VALID,79,VALID,0,
2009-04-14, 03:35:04,VALID,1000.24,VALID,0,VALID,95.2847,VALID,0,VALID,23.6452,VALID,41,VALID,0.0398437,
2009-04-14, 03:36:04,VALID,1000.27,VALID,0,VALID,95.2923,VALID,0,VALID,23.6257,VALID,50,VALID,0,
2009-04-14, 03:37:04,VALID,1000.28,VALID,0,VALID,95.2771,VALID,0,VALID,23.6257,VALID,84,VALID,0,
2009-04-14, 03:38:04,VALID,1000.31,VALID,0,VALID,95.2923,VALID,0,VALID,23.6257,VALID,84,VALID,0,
2009-04-14, 03:39:04,VALID,1000.34,VALID,0,VALID,95.2695,VALID,0,VALID,23.6257,VALID,84,VALID,0,
2009-04-14, 03:40:04,VALID,1000.37,VALID,0,VALID,95.2695,VALID,0,VALID,23.6044,VALID,84,VALID,0,
2009-04-14, 03:41:04,VALID,1000.38,VALID,0,VALID,95.2847,VALID,0,VALID,23.585,VALID,84,VALID,0,
2009-04-14, 03:42:04,VALID,1000.38,VALID,0,VALID,95.2618,VALID,0,VALID,23.6275,VALID,78,VALID,0,
2009-04-14, 03:43:04,VALID,1000.42,VALID,0,VALID,95.2771,VALID,0,VALID,23.5655,VALID,56,VALID,0,
2009-04-14, 03:44:04,VALID,1000.42,VALID,0,VALID,95.2847,VALID,0,VALID,23.546,VALID,56,VALID,0,
2009-04-14, 03:45:04,VALID,1000.44,VALID,0,VALID,95.2847,VALID,0,VALID,23.546,VALID,56,VALID,0,
2009-04-14, 03:46:04,VALID,1000.44,VALID,0,VALID,95.2771,VALID,0,VALID,23.5673,VALID,56,VALID,0,